Theta_e
315 315 315 314 312 311 311 312 314 314 315 316 316 318 321 323 320 315 315 316 315 316 317 317 317 316 314 314 314 314 314 314 314 313 313 313 313 313 312 312 312 312 312 312 313 312 313 313 312 313 313 313 313 313 313 313 313 313 314 315 315 315 317 318 318 317 316 316 316 315 317 318 318 319 321 322 322 321 320 323 324 322 320 321 320 320 322
315 315 315 314 313 311 311 312 313 313 315 316 316 318 320 321 321 318 316 315 315 315 316 316 317 315 314 314 314 314 313 312 312 312 312 312 312 312 312 312 312 312 312 312 312 313 313 313 312 312 313 313 314 314 313 313 313 313 314 315 314 315 317 319 321 321 319 316 314 317 321 320 318 320 322 322 323 322 322 323 324 323 322 322 323 322 323
315 315 315 315 313 311 311 312 313 314 315 316 317 318 319 321 321 319 316 315 315 315 314 316 316 315 314 314 313 313 311 311 311 312 311 311 312 313 312 312 313 312 312 312 312 312 313 312 313 313 312 313 314 314 313 313 313 314 315 315 314 314 316 317 320 322 321 320 319 321 322 319 317 319 320 321 322 322 321 323 325 326 325 325 326 326 328
315 316 315 314 313 311 311 313 314 315 316 316 318 319 320 321 320 317 317 316 314 314 314 315 315 315 315 315 313 312 312 311 311 311 311 311 313 313 312 312 313 312 313 313 312 312 312 312 313 313 313 314 314 313 313 313 313 314 315 315 314 314 314 314 317 319 318 319 319 319 318 316 316 316 316 318 319 320 321 323 325 327 326 327 329 329 328
315 316 315 314 312 311 310 312 314 315 316 316 317 318 318 320 318 315 316 317 315 314 314 314 315 314 315 315 314 312 312 311 311 311 311 312 312 314 313 313 313 313 313 313 312 313 313 313 314 314 314 314 313 313 313 313 313 314 315 314 314 314 313 313 314 315 314 314 314 314 315 314 314 314 314 316 318 320 321 322 324 327 327 329 332 330 327
315 315 315 314 312 310 310 311 313 315 315 315 316 317 317 318 317 315 315 316 316 315 314 314 314 314 314 314 313 312 312 311 310 311 311 313 313 314 315 314 314 314 313 313 314 314 314 314 314 315 314 314 313 314 313 313 313 313 313 313 313 314 313 311 311 312 311 311 312 313 313 313 313 314 314 315 316 318 319 319 321 324 325 326 328 328 327
315 316 315 314 311 310 310 311 312 315 316 315 316 316 316 317 317 317 316 316 315 314 314 314 314 314 315 314 312 312 312 311 311 310 311 313 313 313 314 314 313 313 313 314 315 315 314 314 315 315 315 315 315 314 314 314 313 312 312 313 313 314 314 312 311 312 311 311 311 311 312 312 313 313 313 314 315 316 316 317 319 320 322 323 324 327 328
316 315 315 314 311 310 310 310 311 313 314 314 315 315 316 316 316 317 317 316 314 315 314 314 315 314 314 315 313 311 310 310 311 311 312 313 313 312 313 313 313 312 313 315 315 314 315 315 314 314 314 315 316 316 314 313 313 313 312 312 313 314 314 313 312 312 312 311 312 312 312 312 312 313 313 314 314 315 315 317 318 320 323 323 324 327 329
315 315 315 314 311 310 310 310 311 312 313 314 315 315 316 316 316 317 318 316 314 315 315 315 315 314 313 314 313 311 311 310 310 311 312 313 313 312 311 312 312 312 312 314 314 314 314 314 313 313 312 313 314 315 315 313 312 313 312 313 315 315 314 314 313 313 312 312 312 312 312 312 312 312 313 313 312 314 315 316 318 320 322 322 323 326 329
315 315 315 314 311 310 310 311 311 312 313 314 314 314 315 316 316 317 318 318 316 315 315 314 315 314 313 313 313 312 312 312 311 311 312 312 312 312 311 311 312 312 313 314 313 313 312 312 311 311 311 311 312 312 313 312 312 312 312 314 316 317 315 315 315 315 313 312 312 312 313 314 313 312 313 314 313 314 314 315 318 318 319 321 322 324 329
315 315 315 315 311 309 310 311 311 312 312 313 314 314 314 315 316 317 317 319 316 314 314 314 313 314 313 313 313 312 313 312 312 312 312 311 311 311 311 311 313 314 313 313 312 312 311 311 311 311 312 312 312 311 311 312 312 313 313 314 315 316 315 316 318 317 314 313 313 314 314 314 315 314 314 314 313 314 315 316 318 319 319 319 320 325 331
315 315 315 315 312 310 309 311 311 311 312 313 314 314 313 315 316 317 317 319 317 314 314 313 313 314 313 312 313 312 312 312 312 312 311 311 311 311 311 311 313 314 312 311 311 311 312 312 312 313 313 313 313 313 313 313 313 313 313 313 313 314 315 316 318 317 314 313 314 315 315 315 315 314 314 316 317 319 321 321 321 324 325 323 325 330 331
315 315 316 315 312 310 309 310 311 311 312 312 313 313 313 314 316 317 317 318 317 314 314 314 313 314 313 313 313 313 312 313 312 311 311 311 311 311 311 311 312 312 311 311 311 312 313 314 314 314 314 314 314 315 315 314 313 313 314 314 313 314 316 318 318 316 315 314 314 315 315 315 314 313 316 321 325 325 328 329 328 327 328 328 329 330 329
315 315 316 315 313 311 309 310 311 311 312 312 312 312 312 314 315 316 316 317 317 315 314 315 314 313 313 313 313 313 313 313 313 312 312 312 312 312 312 312 311 311 312 312 312 314 315 315 315 315 315 315 316 316 315 314 314 313 314 314 314 314 315 316 317 316 315 315 314 314 315 314 314 315 320 325 326 326 330 332 329 326 326 327 328 328 327
315 316 316 315 314 311 309 309 310 311 312 313 313 313 312 312 315 316 315 316 317 316 314 314 314 313 314 314 314 314 314 314 313 314 314 313 312 313 313 312 312 313 313 312 314 315 315 315 315 315 315 314 315 315 314 313 313 313 313 314 314 314 314 315 316 316 316 315 316 316 315 314 314 320 325 324 322 323 325 328 328 326 324 325 326 326 326
316 316 317 316 314 312 310 309 309 310 312 313 313 313 312 311 314 316 316 316 317 316 314 314 314 313 314 314 314 314 314 314 315 314 314 315 314 314 313 313 313 314 313 313 315 315 316 316 316 315 315 314 314 314 313 313 313 312 312 314 315 315 316 316 315 315 315 315 316 316 314 314 318 324 324 321 320 321 322 325 328 325 323 324 324 324 324
316 317 317 316 315 313 311 309 309 310 311 312 313 312 311 310 312 315 316 317 317 316 313 313 314 314 314 314 314 314 314 314 315 315 315 315 315 314 314 314 314 314 313 314 315 316 316 316 316 315 315 315 315 314 314 314 313 313 313 315 315 316 319 318 315 316 316 315 316 315 314 315 320 321 320 319 320 319 320 325 327 324 322 324 323 323 323
317 317 317 316 315 314 312 310 309 309 310 312 313 313 312 312 313 314 316 317 317 317 315 314 314 314 314 314 314 314 314 314 315 315 315 315 315 315 315 314 314 314 314 315 315 316 315 315 315 314 314 315 314 314 314 314 313 313 314 315 315 316 318 317 315 316 316 315 315 315 315 317 319 317 317 319 319 318 320 324 325 321 321 323 323 322 322
317 317 317 317 316 315 314 311 310 309 309 311 313 314 312 312 312 314 315 317 317 317 317 316 315 315 315 314 314 314 314 314 315 315 315 315 316 315 315 315 314 314 314 315 316 316 316 316 315 314 314 314 314 314 314 314 314 313 314 314 315 315 315 315 316 316 316 315 315 315 316 317 316 315 316 319 321 321 321 322 322 320 321 322 322 321 322
318 318 318 318 317 316 315 313 311 310 309 311 313 314 314 313 312 313 314 315 316 316 316 316 316 316 315 314 314 314 314 314 315 315 315 316 315 314 315 316 316 315 316 316 316 316 316 316 316 314 314 315 314 314 314 314 314 313 314 314 314 313 313 315 316 316 316 316 316 316 317 317 315 315 317 319 321 321 320 320 320 321 321 322 321 321 321
318 319 318 319 318 317 316 315 313 312 310 311 314 316 316 314 314 314 313 313 314 315 316 316 316 315 315 314 314 314 314 314 315 315 315 315 315 315 317 317 315 315 316 316 315 315 315 315 315 314 314 315 315 314 314 314 314 313 313 314 313 312 313 314 315 315 315 316 316 316 316 316 315 315 316 317 317 318 318 318 320 320 319 320 321 320 320
317 318 318 318 319 319 318 317 315 314 312 312 313 315 315 316 316 315 314 313 313 314 315 315 315 314 315 316 315 315 315 315 315 315 315 315 315 315 316 316 315 315 315 315 315 315 315 315 315 314 314 315 315 314 314 315 314 313 312 313 313 313 313 313 313 313 314 315 316 315 315 314 314 314 316 316 316 316 317 318 319 319 319 320 320 319 319
317 317 318 318 318 318 318 318 317 316 315 313 312 312 313 314 315 315 314 313 314 315 315 316 317 317 317 317 317 316 315 315 315 315 315 315 315 316 316 315 315 315 314 314 315 315 315 315 315 315 314 314 314 314 314 315 315 313 312 313 313 312 311 312 312 313 313 313 314 314 314 313 313 313 315 315 315 316 316 317 317 318 318 319 319 319 319
317 317 317 318 318 318 318 318 318 318 317 316 315 313 313 314 315 315 314 314 315 316 316 317 319 319 318 318 316 315 315 315 316 316 316 316 315 316 316 315 315 315 315 314 314 313 314 314 315 315 315 314 314 314 314 314 314 313 312 312 311 311 311 311 311 312 312 313 314 313 311 311 311 313 314 314 314 314 314 314 315 316 316 317 318 318 318
316 317 317 318 318 318 318 318 318 318 318 318 317 316 315 315 315 315 315 315 315 316 316 317 318 318 317 317 316 316 315 315 316 316 316 316 315 315 316 316 315 315 315 314 314 314 314 315 315 315 315 314 314 314 314 313 312 312 312 313 312 311 311 311 311 310 311 313 313 311 309 310 312 313 312 311 312 313 313 313 314 314 315 316 316 317 318
315 316 317 318 318 317 318 318 318 318 318 318 318 317 317 316 316 315 316 315 315 316 316 317 318 318 317 317 317 317 316 315 314 315 316 316 315 315 315 315 315 315 315 315 314 315 315 315 315 316 315 314 313 314 314 313 312 312 313 312 311 311 311 311 310 309 310 311 311 310 309 310 311 311 310 310 311 311 311 312 313 314 314 315 316 317 318
315 316 317 319 318 317 316 317 317 317 317 317 318 318 318 317 316 316 316 316 315 316 317 318 317 317 316 317 317 317 317 316 315 315 315 315 315 315 315 315 314 315 315 315 315 314 314 315 315 315 315 314 313 314 314 313 312 312 312 311 310 310 311 310 310 309 310 310 310 309 309 309 309 309 309 310 310 310 311 312 313 313 314 315 315 316 317
314 315 316 318 318 318 316 315 315 316 316 317 317 317 318 318 317 316 316 315 315 316 317 317 316 316 317 318 317 316 317 316 315 314 314 314 314 314 314 314 314 315 315 316 316 315 314 314 315 315 314 314 314 314 314 313 312 312 312 311 310 310 310 310 309 310 310 310 309 309 309 308 309 309 309 309 310 310 311 312 312 313 313 314 315 315 316
313 315 316 316 317 317 316 315 314 314 314 316 316 317 317 319 319 318 317 316 315 315 316 316 316 317 318 318 318 316 316 316 315 314 314 314 314 314 314 314 315 315 316 316 315 315 315 315 314 315 314 313 313 314 314 313 312 312 311 310 310 310 309 308 309 310 310 309 308 307 307 308 308 308 308 309 309 310 311 312 312 312 312 313 314 315 315
312 313 314 316 316 316 316 315 315 313 313 314 315 316 318 321 321 319 318 317 316 316 316 316 316 317 317 317 317 317 317 316 316 315 314 314 314 314 314 314 315 315 315 315 315 315 315 315 314 314 314 313 312 313 313 313 312 312 311 310 310 310 310 309 309 309 309 308 307 306 307 307 307 307 307 308 309 310 310 311 311 312 312 312 313 314 314
312 312 313 313 315 315 315 315 314 313 313 313 315 317 319 321 321 319 318 317 316 316 316 316 317 317 317 318 318 318 318 318 317 316 315 315 314 314 314 314 315 315 315 316 316 315 315 315 314 314 314 313 313 313 313 312 312 312 311 311 310 310 311 310 310 310 309 308 307 307 307 307 306 306 307 307 307 308 309 310 310 311 311 312 313 313 314
313 313 312 312 312 312 312 313 313 313 313 313 314 316 318 319 319 318 318 317 317 316 316 316 317 317 318 318 318 319 319 318 318 317 317 316 315 315 314 314 315 315 315 315 316 315 315 314 315 315 314 313 313 313 313 312 312 312 311 311 311 311 310 311 311 311 310 309 308 307 307 307 307 307 306 306 307 308 309 309 309 310 311 311 312 313 314
314 314 314 313 313 312 312 312 311 311 312 313 314 316 317 317 317 317 317 317 317 317 316 317 317 317 318 318 318 318 319 318 318 317 317 317 316 316 316 316 316 316 316 315 316 316 315 314 315 316 314 313 313 314 314 313 313 312 311 311 311 311 310 310 311 311 311 309 308 308 307 307 307 306 306 306 306 307 307 308 309 310 311 311 312 313 314
314 314 315 314 314 314 312 311 311 311 312 313 315 317 318 318 318 318 318 317 317 317 317 317 317 317 318 318 319 319 320 319 319 318 319 318 317 317 318 318 317 316 317 316 316 316 315 315 316 315 314 313 314 314 314 314 313 312 311 312 311 311 311 311 311 311 311 310 309 308 307 307 307 306 306 306 306 306 307 308 309 309 310 311 311 312 314
313 314 314 314 314 314 312 311 312 312 314 316 319 319 319 319 319 319 319 318 318 317 318 318 317 318 318 318 319 320 319 318 319 319 318 317 317 317 317 317 316 316 317 317 316 316 317 316 315 314 314 314 314 314 314 314 313 312 312 312 311 311 311 311 311 311 311 310 309 308 308 307 306 306 306 306 305 305 306 307 307 308 309 310 310 311 313
313 313 313 314 314 313 312 314 315 316 318 320 321 320 320 320 320 320 318 318 317 317 318 318 318 318 318 318 318 319 319 319 319 319 318 317 318 318 317 317 317 317 317 316 317 318 318 316 315 315 315 315 315 314 314 313 313 312 312 312 311 311 311 311 311 310 310 310 310 309 309 307 306 306 306 305 305 305 305 306 307 308 308 309 310 311 312
313 313 314 314 313 313 315 319 321 321 321 321 320 320 320 320 320 319 317 316 316 316 316 317 317 317 317 318 318 319 319 318 318 319 318 317 317 318 317 317 318 318 317 317 318 318 317 315 315 316 316 315 315 313 312 312 313 312 312 311 311 311 311 310 310 310 310 310 310 310 309 308 307 306 305 305 305 305 305 305 306 307 307 308 309 310 311
313 313 313 313 314 317 321 323 323 322 322 322 321 320 320 320 319 319 318 317 317 317 316 316 316 316 317 318 318 319 320 318 318 319 318 317 317 318 318 318 318 317 317 318 318 317 315 314 314 315 315 314 313 312 311 312 312 312 311 311 311 311 310 310 310 310 310 310 310 309 309 308 307 306 305 305 304 304 304 304 305 306 307 308 308 309 310
313 313 315 317 319 321 323 323 322 321 321 320 320 320 320 319 319 320 319 318 318 318 317 317 317 317 318 319 319 320 319 318 318 318 318 318 318 317 317 317 317 316 317 318 317 316 316 317 315 315 315 315 313 312 311 312 312 311 311 311 310 310 310 310 310 309 309 309 309 309 309 308 307 306 305 305 304 304 304 304 305 306 307 307 308 309 310
315 317 320 322 322 323 323 322 321 320 319 319 320 320 320 320 320 320 321 320 320 320 319 319 319 319 319 319 320 319 318 318 318 319 318 318 318 317 317 317 317 316 317 318 316 315 317 317 316 315 316 315 314 312 311 311 311 311 311 310 310 310 310 310 309 309 309 309 309 309 309 308 307 306 305 305 304 304 304 304 304 306 306 307 308 309 310
316 319 322 323 323 322 320 320 319 320 320 320 321 320 321 321 321 321 321 320 320 320 320 320 320 320 319 319 319 319 318 317 318 318 318 318 317 317 318 318 317 316 318 317 316 316 317 317 315 316 317 315 313 312 311 311 311 311 310 310 310 310 309 309 309 309 309 309 309 308 308 308 307 307 306 305 305 304 304 303 304 305 306 307 308 308 310
315 317 318 318 318 318 317 317 319 321 321 321 321 321 321 321 321 322 321 321 320 319 319 319 319 319 319 318 318 318 318 318 317 318 318 318 317 317 318 317 317 317 317 316 316 316 316 314 314 316 317 314 312 312 311 310 310 311 311 310 310 310 309 309 309 309 309 309 309 308 308 308 307 307 307 306 305 304 304 303 303 304 306 307 308 308 311
314 314 315 316 318 319 320 320 321 322 322 321 321 322 321 319 320 322 321 320 320 319 319 319 319 319 319 319 318 317 318 319 318 318 318 318 317 317 317 317 317 317 316 315 316 316 315 313 313 315 316 313 312 311 311 310 310 311 310 310 310 309 309 309 308 309 309 308 308 308 308 308 307 307 307 306 305 304 304 303 303 304 305 307 308 309 310
314 316 319 320 322 322 322 322 323 323 322 321 321 321 321 320 323 324 322 319 320 320 319 319 319 319 319 319 318 318 319 319 317 317 318 317 317 317 316 316 317 317 316 315 316 315 314 314 315 316 315 313 312 311 310 310 311 311 310 310 310 309 308 308 308 308 308 308 308 308 308 308 308 307 307 307 306 305 304 303 303 304 305 306 307 308 309
317 320 322 323 322 322 322 323 321 321 322 322 321 321 321 321 324 324 322 319 320 321 319 319 319 318 318 318 318 319 319 318 317 318 319 318 317 317 317 317 317 317 316 316 317 316 314 315 316 316 314 313 312 311 310 310 311 311 310 310 309 309 308 308 307 307 307 307 308 308 308 308 308 307 307 307 307 306 305 304 303 303 304 305 306 307 308
320 322 322 322 322 321 321 320 319 318 320 321 321 321 321 322 322 322 321 320 321 321 319 319 318 318 317 318 318 318 318 317 316 317 318 317 316 317 317 317 317 316 316 316 316 315 315 316 316 315 314 313 312 311 310 310 310 310 310 310 309 308 307 307 306 306 306 307 308 308 308 308 308 307 307 307 307 306 306 304 304 303 304 304 305 306 308
321 321 320 321 321 319 319 320 320 319 319 320 319 319 319 320 321 321 320 321 321 320 318 317 318 318 318 317 318 318 318 318 317 317 316 316 316 316 316 316 316 315 315 315 314 314 315 316 315 314 313 313 311 311 310 310 310 310 310 309 308 307 306 306 306 306 307 307 308 308 308 308 307 307 307 307 307 307 306 305 304 303 303 303 304 305 307
321 322 321 321 321 320 319 320 321 320 320 319 319 318 319 320 321 321 320 320 320 319 318 318 319 320 319 318 317 318 318 317 317 317 316 316 316 315 315 315 316 316 315 314 314 314 315 315 314 313 313 313 311 310 310 310 310 309 309 308 307 307 306 306 306 306 306 307 307 308 308 308 307 307 307 307 307 307 306 305 304 304 303 303 304 305 306
320 321 322 321 320 319 319 321 322 322 322 321 319 319 320 320 321 320 320 320 319 318 317 318 319 319 318 317 316 316 317 317 317 316 316 316 316 315 315 315 315 315 314 314 314 314 314 313 312 312 312 312 311 310 310 310 309 309 308 308 307 307 306 305 306 306 307 306 307 307 308 307 307 307 307 307 307 307 306 306 305 304 304 303 303 304 305
320 322 322 321 320 320 321 321 322 322 322 321 321 321 320 320 320 320 319 319 318 318 318 318 318 317 316 316 315 315 316 317 317 316 316 316 315 315 315 315 314 313 313 314 314 313 313 313 313 312 312 312 311 310 309 309 309 308 308 308 307 307 306 306 306 306 307 306 306 307 308 308 307 307 307 307 306 306 306 306 305 305 304 304 303 303 304
321 321 322 321 321 322 322 321 321 322 322 321 321 322 321 320 319 319 319 319 319 319 319 318 318 317 316 315 315 315 315 316 316 316 316 316 315 314 314 314 313 313 314 314 312 311 311 312 313 312 311 311 311 310 309 309 309 308 308 307 307 306 306 306 306 307 306 306 306 307 307 308 307 307 306 306 306 306 306 306 306 305 305 304 303 303 303
321 320 320 320 322 321 320 320 322 322 321 320 320 321 321 320 319 319 318 318 318 318 317 317 317 316 315 315 315 316 316 316 315 315 315 315 314 313 313 313 313 313 313 312 311 310 310 311 312 312 312 311 310 310 309 309 309 308 308 308 307 306 306 306 306 306 306 306 306 307 307 308 307 307 306 306 306 306 306 306 306 306 305 305 304 303 303
Wind_Speed
28 30 32 32 31 28 24 19 19 21 18 13 15 15 11 9 5 5 8 7 9 8 4 1 4 3 2 7 10 10 9 9 10 13 14 11 9 8 8 9 8 9 9 9 9 8 5 6 9 7 5 8 13 18 22 20 14 9 5 6 12 10 3 2 6 7 9 15 17 14 9 7 7 6 5 4 6 7 4 3 2 2 3 4 5 3 8
27 29 31 32 30 27 22 17 16 19 20 20 22 19 15 14 8 2 7 11 10 6 3 3 3 3 3 6 10 12 11 10 9 9 10 9 7 6 8 9 9 9 8 7 8 8 5 6 9 7 4 7 17 23 25 20 13 7 4 6 9 6 2 3 4 5 7 10 10 8 7 9 7 7 10 10 11 13 8 5 4 3 6 8 1 5 7
26 29 31 31 29 25 20 15 14 16 17 19 21 18 16 13 7 3 8 14 14 11 9 7 5 5 5 5 8 9 9 11 10 9 10 9 9 8 7 9 9 9 7 6 7 6 3 2 6 7 7 7 13 20 21 17 14 14 12 11 8 4 2 3 2 2 4 5 4 4 6 9 7 9 14 14 13 15 9 5 4 2 7 11 3 3 7
26 29 31 30 28 24 18 13 12 15 16 16 17 15 12 7 5 6 10 16 19 16 15 13 8 7 6 3 5 7 7 9 11 11 9 8 12 12 9 10 8 7 7 7 6 6 4 3 5 6 7 6 9 18 19 13 12 14 14 12 7 2 2 4 3 4 6 7 7 8 9 9 9 13 17 14 13 13 6 2 2 2 4 6 3 5 10
25 28 30 30 27 23 18 12 10 12 14 15 15 15 12 6 3 5 4 9 13 12 14 15 9 8 7 3 5 8 7 6 7 9 7 7 11 9 7 9 7 5 7 6 5 8 7 6 6 6 7 6 8 17 18 12 9 9 10 10 6 1 3 6 7 9 10 12 14 14 13 12 12 16 17 14 12 11 7 3 4 5 5 3 7 12 11
25 28 29 29 27 23 19 13 9 11 13 13 14 14 12 6 5 9 6 2 4 6 9 11 9 9 9 4 6 8 8 7 6 5 6 9 12 7 3 7 8 6 8 5 3 6 5 3 5 4 4 4 6 10 11 10 9 8 8 9 5 2 4 6 8 12 13 13 15 15 13 12 12 15 17 14 13 11 8 7 7 8 5 3 9 14 10
24 27 28 29 26 23 20 15 10 10 11 13 15 14 13 9 7 13 13 5 4 6 7 7 9 9 7 5 7 8 7 8 5 3 3 5 8 5 3 6 8 7 6 4 1 3 3 2 4 3 3 3 3 4 4 6 9 8 5 6 7 3 4 7 8 11 13 13 14 14 14 13 12 15 16 14 12 12 11 9 8 10 9 7 9 12 10
23 26 27 28 25 21 20 17 13 9 7 12 17 16 14 12 8 11 13 8 7 8 6 5 6 7 8 5 5 7 6 7 6 5 5 4 4 5 3 2 2 4 5 4 2 3 4 3 3 4 5 3 2 0 1 3 5 6 2 3 6 3 3 8 9 8 10 12 12 12 12 13 14 15 15 15 13 12 11 9 7 8 9 8 8 10 8
22 26 26 26 24 20 19 18 17 14 9 13 18 15 12 10 7 9 11 5 4 6 4 7 6 5 6 4 4 6 5 6 8 7 7 4 1 3 5 2 1 4 5 5 5 6 6 6 7 8 8 6 3 2 3 5 3 3 2 1 1 1 3 7 7 6 7 9 10 11 12 13 15 14 14 15 14 10 8 8 6 7 9 9 7 7 6
21 24 25 25 23 20 18 17 18 15 12 17 20 16 13 9 7 11 11 4 3 4 6 9 6 2 2 1 2 3 5 7 10 5 6 8 5 6 9 7 5 4 5 5 6 7 9 10 10 11 13 13 12 11 11 12 8 4 2 2 2 2 1 2 3 4 7 10 11 11 10 9 10 9 9 11 12 11 9 9 9 9 8 7 5 4 6
20 23 24 24 22 18 16 15 16 15 14 18 20 16 14 12 10 14 13 5 2 8 8 6 4 3 3 4 5 5 6 7 6 4 3 7 7 8 7 4 3 0 3 5 7 9 12 13 12 13 15 14 14 15 15 15 13 8 5 2 1 2 2 1 0 1 5 11 12 11 8 6 6 5 5 8 12 12 10 9 9 9 8 8 7 4 9
19 22 23 22 22 18 14 13 13 14 14 14 15 13 11 10 10 13 11 4 3 10 7 3 3 5 8 9 9 7 7 7 3 3 5 6 6 8 7 4 1 1 5 9 10 9 11 13 11 11 13 12 12 12 11 9 9 10 9 5 4 4 2 1 0 1 4 8 9 8 6 5 7 8 7 7 8 8 7 6 5 8 8 7 6 7 9
18 20 21 21 21 18 13 11 11 13 13 11 11 12 9 8 10 13 10 4 2 7 4 2 6 9 10 10 8 7 7 8 6 3 5 7 5 7 8 7 6 7 9 12 13 12 8 7 6 6 8 8 6 3 4 4 5 8 9 8 6 4 3 1 1 2 2 3 4 5 6 7 11 12 7 5 6 8 9 6 6 12 13 11 9 8 9
17 19 20 20 20 17 13 11 10 11 12 10 11 13 11 7 10 14 13 6 3 9 8 4 7 10 8 6 7 7 7 8 8 8 9 7 5 6 6 7 10 14 14 12 10 8 3 2 3 4 4 4 1 1 2 4 4 5 7 9 8 5 4 3 2 3 3 3 4 5 8 10 11 9 5 6 6 6 5 3 4 11 13 12 10 9 10
16 18 18 18 19 18 13 10 10 10 11 10 10 12 10 7 8 12 13 8 5 7 9 4 3 6 5 5 6 5 5 7 6 9 13 11 7 6 7 9 11 14 14 10 6 4 2 2 3 3 3 3 2 2 4 4 5 8 9 7 4 4 4 4 5 4 3 3 3 3 5 7 7 4 5 8 9 9 7 4 2 7 14 16 12 9 11
15 16 17 16 17 17 14 11 9 9 10 9 8 10 9 6 5 7 9 9 7 2 5 6 4 3 3 5 5 3 3 4 4 5 8 9 9 8 9 11 12 10 10 8 5 2 1 1 1 2 2 2 2 2 4 4 5 8 9 7 6 5 3 1 4 5 3 4 3 2 4 6 6 4 8 12 12 12 10 6 2 5 14 19 14 10 12
14 15 15 15 16 16 14 11 9 8 9 8 7 8 8 6 4 5 7 9 10 4 6 8 7 6 4 3 4 5 5 5 4 3 2 5 8 9 9 10 9 7 7 6 3 1 1 1 1 2 2 1 2 1 2 3 4 6 7 7 7 5 2 1 3 6 5 4 4 3 3 4 5 9 14 19 16 10 6 3 1 6 13 16 15 13 13
13 14 14 14 15 15 14 12 9 8 8 7 7 8 8 6 4 4 5 7 9 5 5 7 6 5 2 1 3 5 5 5 5 3 3 6 5 6 8 8 6 5 6 4 1 1 1 1 1 1 2 1 3 1 0 1 2 5 5 5 4 4 1 1 2 5 6 6 6 4 3 1 4 13 20 21 15 5 0 2 3 8 12 13 13 13 13
11 12 13 13 13 14 14 13 11 9 8 7 6 7 6 5 4 3 3 6 8 8 6 6 6 4 3 3 4 5 5 5 3 2 3 3 3 7 8 4 3 4 3 3 1 1 1 1 1 1 2 0 1 1 0 1 2 3 5 3 2 3 2 1 2 3 4 5 5 4 3 2 6 18 21 15 6 1 2 6 8 10 12 13 12 11 12
10 11 12 13 13 13 13 13 11 9 8 7 6 6 5 5 7 6 3 4 9 11 7 3 6 7 7 7 7 7 7 6 3 2 3 3 5 8 5 1 2 3 1 2 0 0 0 1 0 0 1 1 1 2 1 2 2 2 2 2 1 2 2 1 1 1 1 3 4 4 3 2 11 16 14 8 4 4 10 15 14 11 12 13 13 12 13
9 10 11 12 12 12 12 12 11 10 8 7 6 6 6 7 11 11 6 4 8 9 6 4 7 9 7 8 9 9 8 8 7 6 6 7 6 4 1 1 2 2 0 0 1 0 0 1 0 0 1 1 1 1 0 1 2 3 3 1 1 0 2 2 1 1 0 2 2 1 2 6 10 8 4 7 11 14 17 18 16 14 14 13 13 14 14
8 9 10 11 11 11 11 11 10 10 8 6 4 4 5 4 7 11 11 8 8 10 12 11 10 9 10 11 12 11 8 8 9 8 7 8 7 3 2 3 4 3 0 0 0 0 0 1 1 1 2 1 1 2 1 1 1 1 1 1 1 1 1 1 2 2 2 4 5 3 4 9 11 9 8 12 15 16 15 15 16 17 15 14 15 15 15
7 9 10 11 11 11 10 10 10 9 8 7 5 4 3 2 5 9 10 9 9 13 15 11 7 10 13 12 10 9 9 9 8 7 7 7 7 5 4 4 4 3 2 3 1 1 0 0 0 2 2 1 1 2 2 2 1 0 1 1 2 2 5 3 3 3 4 6 7 5 7 12 17 14 10 9 11 13 15 16 17 17 17 17 17 17 17
8 9 9 10 10 10 10 10 10 9 8 8 7 6 5 4 6 8 8 7 9 13 12 8 5 10 13 11 7 5 8 10 8 6 7 7 6 5 3 2 2 2 3 3 3 2 1 1 0 0 1 1 1 1 2 2 0 1 1 2 1 3 6 5 4 3 4 3 1 5 11 18 18 12 9 12 14 15 17 18 18 19 19 19 19 18 19
8 8 9 9 10 10 10 10 10 10 10 9 8 8 7 5 5 6 7 6 8 9 7 7 8 8 9 11 10 7 7 8 7 7 7 7 7 7 5 3 3 3 3 3 3 4 3 2 1 1 1 2 2 1 2 2 1 1 1 1 1 1 4 4 3 3 5 5 3 12 20 21 12 7 13 17 17 19 20 20 20 20 20 20 19 19 20
9 8 8 8 9 10 10 10 11 11 11 11 11 11 10 7 4 4 4 7 9 8 6 8 10 10 11 13 12 9 8 7 8 10 8 7 7 9 9 7 6 4 4 4 5 6 5 2 1 1 1 3 3 2 1 1 1 2 2 2 4 3 4 3 2 4 6 5 7 16 19 13 8 12 19 20 19 21 23 22 21 20 21 21 21 20 20
9 9 9 8 9 10 10 11 12 12 12 13 13 12 14 13 9 6 4 4 7 6 5 6 12 17 19 17 14 14 13 11 10 11 9 9 10 10 9 8 7 6 6 7 7 7 6 3 2 3 4 4 4 3 2 1 1 1 3 3 5 3 2 1 2 3 3 3 7 12 10 8 12 20 24 22 22 23 22 20 20 20 21 21 22 22 21
10 9 10 10 10 10 10 11 12 12 13 14 14 15 16 14 9 6 4 3 3 5 6 12 20 23 20 15 11 10 11 12 12 11 9 9 10 10 10 10 9 9 8 7 6 5 4 4 3 4 4 4 4 3 2 2 1 2 3 5 7 5 3 3 2 3 4 6 9 10 9 12 18 22 23 23 24 23 20 19 19 20 21 21 21 23 23
10 10 10 10 11 11 11 12 12 13 14 14 15 17 16 10 4 3 2 2 3 6 11 15 17 16 14 13 13 11 10 11 13 12 10 11 12 12 11 11 11 11 10 10 9 6 4 6 8 7 5 5 3 2 2 3 2 1 3 7 8 7 7 7 6 6 7 8 9 10 11 14 17 20 22 22 22 20 19 19 19 20 21 21 21 23 24
11 10 10 11 11 11 12 13 13 14 14 14 15 15 13 7 3 3 2 2 3 6 10 11 10 12 17 20 17 13 11 12 13 13 14 15 15 14 12 13 13 13 12 13 12 8 5 6 9 9 9 9 5 1 2 3 2 1 4 7 9 8 7 8 8 8 8 7 8 10 11 12 15 19 19 18 18 19 19 19 19 20 21 22 22 24 25
11 11 11 12 12 13 14 15 15 14 15 15 13 9 6 3 3 2 1 1 5 8 10 11 12 16 19 18 12 9 11 13 14 15 16 17 17 17 16 15 15 15 15 14 12 9 7 6 6 6 8 10 7 2 2 3 3 1 2 3 6 7 7 8 9 9 9 8 9 11 10 11 14 16 18 19 19 18 18 19 19 19 20 21 23 24 26
12 12 12 13 13 14 15 15 15 15 15 16 14 11 8 7 9 8 5 4 7 9 8 8 10 10 9 9 9 8 9 10 12 15 16 17 15 15 16 16 15 16 16 13 8 6 7 9 9 8 8 10 7 2 2 4 3 1 1 0 2 4 5 7 8 10 10 8 8 8 9 12 14 15 17 20 19 17 17 18 18 18 19 20 21 22 24
12 13 13 14 14 15 15 15 16 16 16 17 17 14 9 10 12 12 10 9 9 9 8 7 5 5 5 9 12 10 9 10 11 13 15 15 14 13 13 13 12 12 13 12 7 5 7 9 8 6 5 8 7 2 3 4 3 2 1 4 2 1 3 6 7 9 9 8 6 6 8 12 14 14 17 20 20 17 16 17 16 17 17 18 19 20 20
13 13 14 15 15 15 15 15 16 16 17 17 16 11 7 7 8 10 11 11 10 9 8 7 4 4 7 10 10 8 9 10 10 10 10 11 13 12 9 6 5 6 9 10 9 8 8 7 3 1 2 7 8 4 3 3 5 4 4 5 3 3 4 5 5 7 7 8 7 6 8 11 12 14 17 20 21 19 17 17 17 17 16 16 17 18 18
13 14 14 15 16 16 16 16 16 16 15 13 12 10 7 7 8 9 10 12 10 7 7 8 6 5 6 7 5 3 5 7 7 8 7 9 11 11 7 4 4 5 7 8 8 8 7 5 4 3 3 7 7 4 2 5 7 6 5 4 4 4 4 4 5 7 7 7 7 6 7 10 12 14 16 19 22 21 19 18 18 17 17 18 17 16 17
13 14 15 15 16 17 16 15 13 11 8 8 9 10 9 10 12 11 10 13 13 10 8 7 6 6 6 6 5 3 2 2 2 2 4 6 7 8 8 6 4 5 6 6 5 5 5 6 5 3 4 6 5 3 5 7 7 6 5 3 3 3 2 3 5 7 7 5 5 5 6 9 12 14 15 18 21 21 19 19 19 18 18 19 18 17 17
13 14 14 15 16 16 14 11 9 7 7 8 11 11 12 13 13 9 9 13 15 15 12 9 8 9 10 8 6 2 1 1 3 4 3 4 4 5 7 5 2 3 4 4 4 4 5 7 5 2 3 3 5 8 10 10 8 7 6 4 3 2 2 3 5 4 5 4 4 5 6 7 10 13 16 18 20 20 19 20 20 20 19 19 17 17 17
12 13 13 14 13 10 8 7 8 9 11 12 12 12 12 10 7 5 8 10 10 12 12 9 10 14 13 9 7 6 3 2 2 3 3 4 4 2 3 3 3 3 2 2 3 5 5 4 2 1 2 4 9 11 10 10 9 7 6 4 4 3 2 2 2 3 5 5 5 5 5 6 7 12 16 19 20 19 18 19 20 20 18 17 16 18 17
10 11 11 9 7 6 6 8 10 12 13 11 9 8 7 6 3 3 6 8 6 8 11 9 12 17 14 8 7 8 5 1 2 1 3 5 4 1 1 2 3 3 2 2 2 5 3 1 2 2 3 4 8 10 10 11 11 9 6 4 4 4 2 0 1 3 4 5 5 6 6 6 7 10 15 20 21 20 18 19 21 21 19 17 17 17 16
8 8 7 6 6 6 8 10 11 11 10 7 5 5 5 5 5 3 3 4 4 7 9 9 12 16 15 10 7 6 4 3 4 3 3 4 4 2 3 3 2 3 2 2 2 4 2 1 2 2 3 5 9 11 12 12 12 10 7 4 3 3 1 1 2 4 4 4 5 6 7 7 8 11 14 19 22 21 19 20 22 23 22 20 18 19 17
7 6 4 6 8 9 11 13 13 9 5 4 4 4 3 4 5 4 2 2 2 4 6 7 8 8 8 8 6 4 3 4 5 5 5 3 2 2 2 1 1 2 2 1 2 2 1 1 2 2 2 8 13 13 12 12 11 9 7 5 3 2 1 2 3 4 4 5 6 7 7 8 9 11 13 17 21 21 19 19 22 24 23 21 20 21 19
8 8 9 12 14 13 12 13 10 6 4 4 3 2 2 3 3 2 3 3 3 3 5 7 8 9 11 10 5 2 4 5 5 5 4 1 0 2 1 0 0 2 1 1 2 2 0 1 2 2 4 12 15 13 11 11 10 9 8 6 4 2 1 2 3 4 5 5 6 7 7 8 9 10 12 16 20 21 20 19 20 23 24 22 22 22 20
7 8 10 13 12 8 6 6 6 4 3 2 1 1 3 2 0 1 1 4 5 6 8 11 15 16 14 10 5 3 4 4 3 3 2 1 1 1 1 1 1 2 1 0 1 2 2 2 3 4 9 16 16 12 11 12 12 11 9 6 4 3 1 1 2 4 5 5 5 7 8 8 8 9 12 15 18 20 21 21 20 21 22 23 23 23 21
6 6 7 7 5 3 2 2 5 4 1 1 2 2 3 2 0 0 2 5 7 8 10 14 15 13 12 11 7 3 2 1 1 2 2 1 1 0 1 2 1 1 1 1 1 2 2 2 3 7 14 17 16 13 12 13 13 12 8 5 4 3 1 2 3 4 4 4 4 6 8 8 8 9 12 14 16 18 21 23 22 21 21 22 24 24 21
4 3 3 3 3 3 1 0 3 3 2 2 2 0 2 3 2 2 5 9 12 13 15 16 14 11 12 11 6 2 0 2 1 2 1 0 1 1 1 1 1 1 1 2 2 1 2 2 3 10 15 15 15 17 16 15 14 12 9 7 6 4 3 4 4 4 4 3 4 6 7 8 8 9 11 13 14 16 19 23 24 23 21 22 23 24 22
3 3 3 3 2 3 3 1 1 1 0 3 5 5 6 8 8 8 11 15 16 16 15 15 13 12 11 8 4 3 1 1 0 1 2 1 2 2 1 2 2 1 1 2 1 1 1 2 3 9 13 12 14 19 18 15 13 12 9 8 7 5 4 5 4 5 4 4 4 6 6 7 8 9 10 11 13 15 17 20 23 25 23 23 23 23 21
4 5 4 3 2 3 5 2 0 1 2 6 9 10 12 15 16 16 16 16 15 14 16 16 14 10 9 8 5 2 2 2 1 1 1 1 2 2 1 2 1 0 0 1 1 1 1 3 4 8 12 12 14 19 18 14 14 14 11 8 7 6 5 5 4 4 4 4 5 5 5 5 7 9 9 10 11 14 16 18 21 24 25 23 21 20 20
4 5 4 2 2 3 3 0 2 1 3 8 12 15 15 15 15 15 15 14 14 16 18 16 11 7 6 6 4 1 2 2 1 1 2 2 2 2 1 1 1 0 1 1 1 1 2 1 5 10 13 12 12 18 19 16 17 16 12 8 7 6 5 6 5 4 3 4 6 5 3 3 5 8 9 10 10 12 14 17 20 23 25 24 21 20 20
6 5 4 3 4 6 5 4 5 2 2 4 11 15 14 12 13 14 13 13 15 18 17 12 8 5 4 3 3 1 1 1 1 2 2 1 1 1 1 2 3 2 1 1 2 4 5 5 10 15 14 13 12 17 21 19 17 15 12 9 8 7 6 6 5 4 3 5 6 5 4 4 6 8 9 10 10 10 13 16 19 22 24 25 23 21 21
7 7 6 6 6 7 6 6 6 4 2 3 8 10 9 10 13 13 11 13 16 16 12 8 6 4 3 3 3 1 1 1 0 1 2 1 1 1 2 2 2 3 3 3 6 10 8 6 12 16 14 11 10 14 20 19 15 13 12 9 8 8 7 6 6 6 5 6 7 6 5 6 7 8 9 10 11 10 11 14 17 20 23 24 23 22 21
6 7 9 10 9 4 3 3 3 4 4 7 9 9 9 10 12 10 9 12 14 11 6 4 4 3 2 2 2 2 3 3 2 1 1 1 0 1 2 2 3 5 7 10 14 18 14 8 12 17 16 11 8 12 18 18 15 13 12 10 9 8 7 7 8 7 5 7 7 7 6 7 7 8 10 10 10 11 11 12 14 17 20 22 23 22 21
5 6 8 9 7 3 5 5 5 5 7 11 12 10 8 9 10 10 11 11 10 8 7 5 3 1 1 2 2 3 3 3 2 1 1 1 1 1 2 4 6 8 11 15 18 18 13 8 10 13 14 12 10 13 17 17 14 13 13 12 10 8 7 8 9 6 7 10 10 8 8 8 7 7 9 10 11 13 12 11 12 14 17 19 21 21 20
Wind_Direction
0 3 4 4 3 4 6 4 1 5 11 10 3 11 9 338 325 26 23 352 329 314 286 348 67 91 88 77 59 48 47 32 30 31 23 25 17 13 46 39 26 41 26 12 24 13 0 13 6 5 34 50 44 26 14 5 359 6 17 8 358 343 325 337 307 297 301 296 297 301 307 330 332 307 301 313 321 317 282 248 311 323 262 204 166 216 265
2 5 5 3 3 5 7 6 2 4 9 10 7 7 0 340 316 342 29 11 347 338 355 357 33 83 93 95 80 66 50 32 29 33 30 25 5 10 49 39 30 37 24 23 30 15 9 9 1 356 349 30 42 28 9 359 356 360 17 18 359 345 2 14 338 322 320 309 307 315 345 3 343 313 336 348 349 352 349 348 14 23 336 337 145 194 258
3 6 4 3 3 5 9 12 10 8 11 11 6 3 359 348 326 328 30 36 32 26 22 17 26 33 42 81 83 82 73 52 38 35 41 34 14 22 45 36 34 29 14 25 28 20 50 4 349 1 349 1 31 19 3 355 346 342 355 3 357 347 332 351 355 314 305 299 308 334 347 344 323 315 332 338 350 3 12 9 9 24 349 340 313 214 290
5 6 4 3 4 6 11 19 20 17 16 13 11 9 358 340 339 352 9 32 38 28 20 31 44 20 11 31 34 49 75 65 43 32 38 42 33 38 39 25 29 29 15 19 9 2 25 18 2 7 354 351 10 359 352 351 334 332 344 344 333 330 297 297 265 248 267 277 290 306 311 311 310 316 322 326 339 351 359 18 4 324 324 316 305 349 337
6 6 4 3 5 8 13 20 25 25 22 17 20 17 357 331 5 18 2 21 27 19 17 32 45 24 19 14 359 23 47 54 46 35 37 58 48 40 35 29 26 14 14 20 4 359 3 5 13 11 353 343 343 343 343 339 327 330 338 324 307 268 278 281 272 265 266 271 282 292 298 300 306 308 308 312 320 325 325 325 322 315 313 299 320 340 342
6 7 5 4 6 9 15 22 32 36 34 29 28 22 10 359 17 23 19 2 10 13 20 37 53 42 32 27 10 22 36 41 51 40 35 67 65 44 26 41 27 2 17 28 355 359 1 4 19 10 345 340 332 334 335 333 338 346 337 321 316 287 269 274 275 275 277 278 281 287 290 295 303 302 299 307 318 320 321 323 321 317 306 289 314 322 320
7 6 5 5 7 11 14 21 39 48 49 47 41 34 25 18 13 14 14 20 30 24 27 54 73 56 33 24 21 18 22 28 30 11 6 60 73 53 24 40 21 354 13 32 344 0 359 350 7 342 305 306 301 317 323 323 340 350 339 329 340 336 281 285 283 278 279 279 277 280 287 291 294 291 291 299 308 309 310 308 306 304 292 278 294 298 295
7 6 6 6 8 12 13 18 31 35 45 56 52 46 32 22 14 358 355 11 20 354 354 40 72 56 30 21 22 14 17 18 2 7 30 37 56 46 29 45 26 352 2 0 335 0 351 330 332 310 297 285 233 222 249 258 313 331 311 336 359 6 305 306 308 293 286 284 277 273 277 280 278 280 286 293 294 292 291 292 295 297 290 286 297 297 295
8 5 5 7 10 14 15 21 31 30 40 61 52 39 22 21 28 355 339 347 346 316 350 45 54 58 37 24 28 18 9 16 11 10 18 12 342 351 345 337 59 33 11 347 341 354 337 315 310 305 305 306 283 257 255 250 268 302 259 247 19 37 322 319 320 302 293 296 288 280 280 278 271 266 269 277 282 283 283 286 288 284 292 309 319 304 300
8 5 5 8 11 16 18 27 40 40 49 63 53 32 17 30 56 25 1 328 306 350 45 53 40 62 73 33 34 9 342 16 39 29 339 349 356 342 352 17 35 14 355 341 340 329 304 295 305 308 305 303 298 293 290 286 285 286 268 238 180 161 175 326 329 307 297 298 295 295 302 290 270 261 257 261 269 275 277 278 276 273 283 304 300 286 334
7 5 5 8 12 17 21 30 43 42 43 55 52 34 20 26 30 15 3 330 9 45 60 54 24 31 39 12 5 12 358 5 50 112 289 337 338 311 328 35 85 1 326 311 298 292 295 304 312 306 296 291 291 292 289 285 285 285 279 267 233 223 210 203 171 249 290 301 305 306 299 277 273 289 283 269 268 268 268 270 276 278 270 264 274 342 24
8 4 4 9 13 17 22 30 39 40 40 50 52 38 25 31 25 6 352 322 49 64 74 74 21 8 16 19 7 5 357 334 338 165 228 280 299 303 325 17 57 347 339 319 313 322 327 325 319 303 293 285 281 287 294 298 303 301 291 270 245 244 245 241 208 226 274 297 303 293 269 260 284 293 287 285 295 306 312 309 330 351 339 317 334 28 42
7 4 3 9 14 16 23 29 34 40 41 44 51 44 34 44 40 20 1 327 24 56 64 82 46 27 23 22 359 342 339 326 326 321 282 289 324 353 3 1 344 348 346 338 348 358 346 325 323 312 298 284 264 281 329 326 309 304 299 288 270 241 196 163 209 233 260 276 265 264 276 292 293 292 307 343 356 6 359 345 22 31 18 11 26 40 36
8 6 4 9 15 16 22 29 30 39 44 44 50 45 31 40 48 29 12 343 0 37 41 45 36 30 27 10 341 337 344 344 345 341 326 324 354 9 353 328 338 351 347 343 358 1 336 327 342 321 308 304 279 67 343 289 271 288 287 276 270 251 205 184 196 202 219 244 254 276 293 296 287 289 339 13 359 6 7 326 16 28 16 9 21 33 30
9 7 5 9 16 17 20 29 30 36 43 44 50 48 36 42 55 33 11 345 334 33 50 59 30 22 14 350 342 344 346 348 351 340 333 336 357 8 341 325 341 350 342 341 2 358 344 25 349 312 329 354 350 331 320 314 320 316 299 284 281 267 231 200 196 197 196 215 252 295 289 279 275 287 10 10 350 347 342 293 309 16 7 4 11 25 27
11 9 7 10 16 19 20 26 30 37 43 44 48 50 47 48 54 47 30 5 335 356 76 81 73 39 337 328 351 23 8 349 347 342 338 342 354 358 343 336 346 354 351 355 7 358 7 70 313 294 316 5 13 314 309 322 323 315 315 335 0 348 325 213 214 222 195 192 218 225 233 257 281 340 0 348 342 344 334 305 275 353 355 358 2 13 27
14 10 9 11 17 20 21 24 31 37 42 44 43 45 49 43 35 63 57 8 333 330 76 64 38 16 355 335 4 20 10 342 336 347 318 314 333 345 341 338 345 357 3 1 352 353 357 245 236 279 286 51 83 237 282 319 314 316 332 347 348 343 10 61 240 233 218 218 235 232 236 271 337 355 336 323 325 342 334 282 274 332 340 353 359 3 20
16 14 11 13 19 22 21 24 29 32 38 46 48 46 46 40 32 57 53 3 333 333 44 36 9 2 24 344 327 346 341 320 327 343 300 288 310 334 337 344 356 359 7 11 342 325 324 263 215 268 283 85 108 171 2 13 297 316 338 337 325 322 356 110 224 231 230 229 229 246 261 291 352 331 321 319 321 335 311 245 298 310 316 338 354 358 12
17 16 13 13 19 23 23 23 26 31 37 43 49 48 40 31 22 5 1 4 341 310 317 351 343 328 349 342 323 320 309 291 288 317 306 299 332 327 323 356 31 352 12 56 64 264 268 257 142 185 257 300 101 125 95 233 258 325 336 313 306 332 339 227 213 236 244 229 228 263 256 132 352 329 330 341 344 236 265 317 311 301 310 330 344 349 357
11 13 13 13 16 21 24 24 25 29 36 46 56 55 35 8 358 346 332 352 332 305 291 334 343 328 333 337 327 320 318 313 310 304 284 295 337 332 318 56 29 334 7 117 36 286 179 280 312 151 264 295 100 129 170 244 258 290 302 306 3 344 319 303 262 265 242 220 226 247 238 35 10 353 351 10 15 302 310 316 313 312 323 332 335 337 342
1 5 6 6 10 17 21 22 25 27 36 56 68 63 47 10 347 338 325 313 313 298 274 285 310 307 297 290 294 306 312 305 302 307 302 300 315 328 312 231 300 299 195 82 328 68 144 287 302 171 262 248 172 169 208 285 268 243 247 291 49 239 277 317 341 355 318 225 213 202 277 332 354 357 318 300 307 311 315 315 314 318 325 327 328 330 330
347 355 357 356 0 8 13 17 21 22 26 40 45 44 52 24 327 317 317 308 285 277 285 297 300 291 280 274 279 288 291 285 283 286 292 297 293 264 222 235 246 246 222 59 311 179 242 319 346 272 275 252 210 245 276 258 241 268 314 308 174 160 345 290 243 273 288 258 266 305 334 330 326 308 288 299 309 316 322 323 322 322 321 320 321 321 319
328 339 346 347 348 354 1 6 11 12 15 16 3 351 0 330 293 302 319 322 303 299 310 318 300 284 287 286 280 275 272 272 271 257 253 278 286 261 226 222 235 243 182 164 200 289 105 138 255 264 269 255 241 267 267 233 214 146 14 229 188 49 14 331 266 294 302 269 275 315 346 335 324 315 316 333 339 338 338 337 333 326 321 318 315 313 312
313 323 333 338 340 344 348 351 355 358 359 0 357 349 341 327 316 321 333 334 321 319 324 325 293 287 298 304 300 279 268 266 263 249 240 250 261 255 233 210 235 236 200 200 229 237 213 200 208 296 296 251 239 255 238 224 163 101 239 245 192 43 10 335 301 332 326 278 321 27 347 326 320 327 350 355 347 340 338 334 328 320 315 314 314 311 309
307 310 320 330 334 337 341 343 342 341 342 344 344 341 338 331 323 332 344 341 326 319 314 302 296 299 310 308 295 278 272 265 249 243 243 235 236 249 262 274 273 252 239 250 225 192 192 215 198 169 235 219 215 219 208 210 168 160 213 240 180 34 352 333 320 329 294 265 347 2 338 321 314 337 352 345 336 331 329 324 319 316 311 308 309 308 307
307 302 308 319 327 330 335 336 334 332 332 331 330 329 329 323 300 293 321 325 311 289 262 271 289 303 315 308 287 268 275 272 240 229 232 230 237 251 256 257 263 256 235 226 215 209 215 214 174 197 220 198 199 208 199 191 164 178 207 204 198 242 308 316 306 305 277 263 338 350 337 320 312 324 328 328 324 322 319 314 312 311 308 305 303 301 302
310 302 298 304 315 323 328 330 329 326 323 323 323 320 321 318 297 257 251 301 304 283 249 267 294 304 309 303 278 255 259 262 239 218 222 236 241 243 240 238 246 250 235 219 213 219 225 210 190 224 228 201 195 215 229 200 157 222 241 192 175 202 279 295 293 301 280 283 338 342 329 304 305 313 315 316 316 313 310 308 308 306 303 303 301 299 298
313 305 296 295 301 310 319 324 325 322 318 318 316 314 317 317 296 254 226 233 269 277 278 289 298 304 312 317 301 265 250 247 237 224 230 244 233 221 224 234 241 243 240 233 226 222 225 228 228 227 216 194 190 203 217 200 200 255 237 178 169 189 209 199 223 264 273 292 316 323 307 290 295 304 308 311 311 308 304 303 305 302 299 300 299 298 298
312 309 302 296 294 299 307 316 321 320 317 315 312 313 320 326 311 271 243 225 258 284 291 294 297 295 297 304 299 279 252 243 243 243 247 247 232 218 217 227 236 242 246 250 251 247 244 254 257 244 213 200 201 191 188 204 225 237 189 180 189 211 220 212 221 247 264 283 309 319 306 295 301 310 311 307 306 305 304 304 303 300 298 297 295 293 293
307 308 305 299 296 296 301 308 314 316 314 311 311 315 322 330 317 294 283 259 277 291 297 301 298 289 294 301 297 274 253 249 247 245 244 241 236 229 223 222 228 237 245 251 254 256 256 257 259 253 227 210 207 209 227 241 251 183 170 184 197 215 229 226 232 250 261 275 311 325 316 311 321 325 319 312 310 309 306 303 300 299 296 293 291 289 287
304 305 303 300 298 296 298 303 306 308 308 304 300 300 307 306 282 280 299 276 278 283 287 287 283 284 296 308 305 269 253 255 251 248 251 250 244 238 232 228 227 228 233 241 244 245 246 244 251 255 230 213 214 243 275 269 268 184 142 171 192 208 226 235 243 254 258 272 309 327 324 326 336 339 335 330 325 318 312 306 301 299 297 293 288 286 283
304 304 303 303 302 300 301 302 300 300 301 298 291 286 282 278 278 280 271 256 270 281 281 279 285 288 292 304 305 284 262 255 249 250 257 260 256 250 240 232 225 222 226 234 237 234 238 238 238 242 228 212 209 238 266 249 243 180 88 259 202 209 231 250 259 259 254 267 303 321 321 329 341 346 342 337 331 324 319 315 307 301 299 296 291 287 284
301 304 305 307 307 305 304 302 300 299 298 297 298 297 283 263 265 271 266 258 266 275 268 263 282 286 271 288 298 285 256 248 249 251 256 258 261 265 255 236 223 219 222 226 222 220 236 238 233 234 223 205 197 210 261 235 188 129 236 268 277 269 263 272 274 263 251 259 283 300 312 326 338 346 346 344 340 333 327 325 320 313 307 303 298 293 291
299 302 304 306 308 308 306 303 301 299 297 297 299 299 278 250 255 262 258 252 255 263 259 251 260 276 275 286 291 265 242 244 241 238 249 255 253 258 263 254 244 240 236 234 232 235 242 235 200 121 231 214 209 226 254 199 167 177 235 258 283 306 293 286 285 275 263 262 272 293 316 327 334 342 348 350 347 343 339 336 333 327 320 312 305 301 298
297 298 300 305 309 309 306 304 302 299 299 301 301 297 290 279 273 267 256 247 245 251 249 238 237 263 279 284 286 251 236 238 222 211 231 258 256 248 244 251 255 245 237 235 236 237 232 203 143 120 214 214 214 231 216 167 171 194 220 245 278 294 297 294 293 295 292 279 270 288 323 336 340 345 351 353 351 348 344 341 341 338 331 323 316 310 304
295 296 298 303 308 307 307 308 306 298 296 298 297 298 296 287 282 277 262 248 244 250 261 259 253 259 268 277 292 299 262 267 284 253 244 264 259 226 202 200 229 233 220 219 231 232 204 171 158 179 222 220 215 196 158 149 160 179 191 218 257 271 283 287 289 298 304 293 274 283 309 332 346 352 353 354 354 351 348 347 349 346 337 329 322 316 311
295 296 299 304 308 309 310 312 309 306 307 300 292 293 293 287 284 276 249 239 240 243 248 257 259 257 263 277 291 310 52 4 322 310 264 245 239 203 185 181 211 233 223 227 230 205 173 166 172 227 260 213 163 149 149 152 162 175 183 205 242 252 257 269 280 303 320 321 317 312 310 324 346 357 360 0 358 355 353 353 353 349 340 332 324 319 317
294 297 302 306 310 312 312 312 313 318 319 308 295 291 287 280 276 249 219 221 235 237 230 235 253 256 259 266 262 253 244 215 236 253 239 230 235 217 184 193 210 214 232 259 205 174 166 165 170 263 266 168 144 144 149 150 155 167 176 190 222 248 263 256 278 327 343 343 343 341 334 335 351 1 5 6 3 359 356 356 356 355 348 339 331 326 324
296 303 309 311 309 300 295 302 312 321 320 307 289 280 270 245 231 226 204 199 216 225 212 219 247 249 244 244 257 267 277 228 182 224 248 240 246 248 165 208 221 217 246 281 181 169 182 202 148 182 236 196 156 152 153 149 151 164 175 185 216 242 250 107 357 353 2 5 2 359 355 354 3 12 13 10 7 4 1 0 2 2 358 351 343 337 336
293 308 318 309 297 297 303 307 314 322 324 308 262 253 252 227 216 219 194 192 217 209 198 219 249 248 242 248 268 281 275 223 209 248 264 254 259 249 199 189 190 200 237 267 180 170 202 233 159 187 232 197 166 159 158 154 154 161 167 177 215 242 268 7 359 4 10 11 13 12 3 359 9 20 20 15 11 8 5 5 7 8 8 2 350 343 347
282 296 293 271 273 286 297 301 303 305 296 260 235 241 244 223 217 221 228 262 263 216 214 243 263 268 280 295 306 306 274 236 236 262 269 255 257 255 228 176 176 228 256 254 165 180 212 173 189 240 201 161 158 160 159 155 155 161 169 184 207 227 308 339 354 14 17 14 19 21 11 3 9 18 21 19 16 13 11 10 10 13 15 8 356 354 7
280 277 273 276 283 287 285 283 282 274 251 243 251 263 246 229 229 222 214 241 306 321 299 299 314 326 325 326 334 316 268 246 241 258 264 257 296 278 269 1 228 248 274 119 159 193 211 157 218 261 168 156 160 166 165 161 162 166 170 178 190 200 267 326 356 19 23 24 27 27 22 14 13 16 20 21 20 19 18 16 14 18 20 14 7 12 28
289 282 286 293 296 292 275 252 234 226 240 248 245 276 260 247 105 78 222 264 298 309 310 322 333 331 325 323 318 270 244 229 221 238 252 299 341 314 257 258 243 227 229 199 192 203 196 199 230 212 170 162 164 170 168 164 163 164 165 171 183 194 220 355 25 29 31 34 32 29 30 30 22 16 18 23 24 24 23 20 20 23 25 22 20 25 36
299 292 299 304 289 259 252 217 191 189 235 268 227 256 284 280 302 25 288 292 302 306 317 334 340 330 317 320 317 273 218 176 234 246 247 265 289 265 252 273 269 184 157 204 224 210 212 229 205 171 164 164 168 171 165 159 158 159 159 161 173 183 156 78 64 38 29 32 28 27 35 39 33 20 17 22 27 27 25 23 23 26 29 29 27 29 36
305 277 276 295 277 246 234 155 187 199 240 256 224 266 321 298 266 262 288 300 308 315 327 339 337 315 307 317 318 271 179 39 344 259 259 234 230 238 232 240 259 252 222 235 241 216 224 241 172 161 165 170 171 167 161 156 154 154 151 150 161 166 123 89 70 36 28 40 34 28 34 39 35 28 23 24 27 28 27 26 25 26 30 33 32 30 34
291 256 243 268 274 221 198 220 258 231 11 14 13 359 318 293 286 295 306 310 314 318 324 329 325 311 307 312 294 237 211 96 167 280 330 334 279 259 211 204 248 276 256 266 323 11 311 329 125 154 171 177 164 156 157 159 155 149 146 150 156 149 118 97 60 28 42 65 48 35 38 40 39 40 35 27 26 30 32 31 28 28 31 36 35 31 33
277 264 251 258 269 231 217 225 15 64 340 331 328 316 302 297 297 301 306 309 313 321 327 330 326 311 294 282 268 230 156 142 191 316 356 290 277 274 224 226 269 324 217 290 307 260 298 354 83 150 181 187 160 149 153 157 153 148 148 151 151 141 123 105 74 52 65 71 55 48 49 41 42 49 46 34 30 35 38 36 33 31 34 39 42 40 41
260 272 264 249 252 244 235 336 34 351 300 318 318 308 300 300 301 304 309 313 318 326 333 332 323 305 284 270 261 213 134 150 246 242 189 216 276 294 275 273 294 55 123 331 332 258 247 236 160 177 202 210 176 157 160 161 153 149 149 150 148 141 123 99 88 84 73 59 56 62 55 30 43 55 52 43 41 41 39 39 39 37 35 39 45 50 51
246 266 269 254 262 273 290 345 4 330 271 327 324 311 304 307 310 313 319 324 327 332 334 324 304 299 315 308 285 260 139 147 226 230 227 253 294 307 302 303 314 340 42 20 307 290 270 214 180 185 206 222 200 174 168 163 153 147 148 150 144 132 113 97 99 106 76 47 51 61 58 50 58 63 56 51 51 46 37 37 41 42 38 38 45 53 56
238 247 248 245 260 281 308 345 349 321 280 308 315 312 318 327 324 319 323 330 331 335 340 336 323 330 346 331 313 334 50 42 300 275 301 316 316 322 325 319 316 323 321 301 304 311 302 236 189 184 197 222 222 186 168 160 151 146 147 143 130 115 102 97 109 116 85 46 41 50 63 67 69 67 63 60 57 51 42 39 41 45 43 41 45 53 58
234 239 245 243 243 265 339 347 301 279 298 314 314 313 316 316 313 317 331 334 331 332 346 357 346 336 328 320 322 338 346 338 330 331 343 347 345 331 323 282 275 304 315 321 331 337 330 278 216 197 191 199 204 175 161 155 151 150 148 140 128 120 108 103 113 115 79 49 51 64 75 77 76 76 79 76 67 60 56 48 43 46 48 46 46 52 59
232 253 270 261 245 272 332 310 255 256 303 312 309 307 309 312 322 337 346 343 338 339 349 357 350 308 314 9 8 345 330 327 324 328 355 26 174 251 295 301 311 325 328 328 333 340 336 298 246 220 204 195 180 161 155 153 150 149 147 142 137 130 116 111 118 110 65 56 65 69 63 60 63 75 88 88 75 67 67 63 51 48 50 50 49 53 60